sat.trackr.live / text

‹ back to catalog

STARLINK-32498

NORAD 61966 · 2024-210H

PAYLOAD ACTIVE UNKNOWN

§ Identity

Operator
Country
US
Launch date
2024-11-14
Launch site
AFETR
Launch vehicle
Mass (kg)
RCS (m²)

Purposes: comms

External: N2YO · Heavens-Above · Gunter

§ Orbital elements

Epoch: 2026-09-21T08:27:03.770208Z

Period
94.27 min
Inclination
42.9980°
Eccentricity
0.0002121
Mean motion
15.27574581 rev/d
Perigee alt
481.6 km
Apogee alt
484.5 km
Semi-major
6,861.2 km
B*
3.8203e-4
RAAN
140.1446°
Arg perigee
270.3745°
Mean anomaly
89.6863°
Rev number
10,500

§ Raw data

STARLINK-324981 61966U 24210H   26264.35212697  .00010263  00000+0  38203-3 0  99922 61966  42.9980 140.1446 0002121 270.3745  89.6863 15.27574581105007

JSON: /api/v1/satellites/61966 · /tle

For live sub-satellite position, see the globe view (requires WebGL).

§ Visibility from observer

Set your observer location to see the next 7 days of passes ≥ 10°. The values pass through the URL so the page stays shareable.

No JS? Fill the form by hand. The geolocation button needs JavaScript.